Regional Weather Roundup
Issued by NWS

Home | Current Version | Previous Version | Text Only | Print | Product List | Glossary On
Versions: 1 2 3 4 5 6 7 8 9 10 11 12 13 14 15 16 17 18 19 20 21 22 23 24 25 26 27 28 29 30 31 32 33 34 35 36 37 38 39 40 41 42 43 44 45 46 47 48 49 50
000
ASHW40 PHFO 300612
RWRHI

WEATHER ROUNDUP FOR HAWAII
NATIONAL WEATHER SERVICE HONOLULU HI
800 PM HST WED MAR 29 2017

THIS IS AN AUTOMATED REPORT THAT HAS NOT BEEN QUALITY CONTROLLED.

NOTE..."FAIR" INDICATES FEW OR NO CLOUDS BELOW 12,000 FEET WITH NO
SIGNIFICANT WEATHER AND/OR OBSTRUCTIONS TO VISIBILITY.

* - THESE SITES REPORT LIMITED FIELDS

HIZ001>004-300700-
KAUAI-NIIHAU-

CITY           SKY/WX    TMP DP  RH WIND       PRES   REMARKS
LIHUE APT      MOCLDY    75  68  78 NE9       30.12R
PORT ALLEN*      N/A     75 N/A N/A E14         N/A
POIPU*           N/A     75 N/A N/A NE5         N/A
PRINCEVILLE*     N/A     73 N/A N/A SE3         N/A
KOKOLE POINT*  NOT AVBL
MOLOAA DAIRY*    N/A     73  68  83 E3          N/A
WAIMEA HTS*    NOT AVBL
PUU OPAE*      NOT AVBL
PUU LUA*       NOT AVBL
MAKAHA RIDGE*  NOT AVBL
$$

HIZ005>011-300700-
OAHU-

CITY           SKY/WX    TMP DP  RH WIND       PRES   REMARKS
HONOLULU       PTCLDY    77  64  64 N3        30.09R
KALAELOA       CLEAR     77  65  66 NE5       30.11R
KANEOHE MCB    NOT AVBL
WHEELER FIELD  PTCLDY    72  64  75 CALM      30.11R
BELLOWS*       NOT AVBL
KAHUKU*        NOT AVBL
WHEELER*       NOT AVBL
WAIANAE HARBOR NOT AVBL
DILLINGHAM*      N/A     73  68  83 CALM        N/A
KAHUKU TRN*      N/A     72  68  88 W3G10       N/A
KAWAILOA*        N/A     68  63  83 S1G8        N/A
KII*             N/A     75  68  78 E10         N/A
MAKUA RANGE*     N/A     84  81  89 NW2         N/A  HX  98
OAHU FOREST NW NOT AVBL
SCHOFIELD BRK*   N/A     81  79  94 MISG        N/A
SCHOFIELD S*   NOT AVBL
WAIANAE VLY*   NOT AVBL
KUAOKALA*      NOT AVBL
HONOULIUULI*   NOT AVBL
MOKUOLOE IS*   NOT AVBL
PALEHUA*       NOT AVBL
WAIAWA PHB*    NOT AVBL
$$

HIZ012>013-300700-
MOLOKAI-

CITY           SKY/WX    TMP DP  RH WIND       PRES   REMARKS
MOLOKAI AIRPT  CLEAR     74  65  73 N3        30.10R
KALAUPAPA      NOT AVBL
MAKAPULAPAI*   NOT AVBL
MOLOKAI 1*     NOT AVBL
PUU ALII*      NOT AVBL
$$

HIZ016-300700-
KAHOOLAWE-

CITY           SKY/WX    TMP DP  RH WIND       PRES   REMARKS
KAHOOLAWE*     NOT AVBL
HAKIOAWA*      NOT AVBL
HONOKANAIA*      N/A     77  64  63 NE15G26     N/A
KANELOA*         N/A     72  64  78 E18G29    30.13R
KEALIALALO*    NOT AVBL
LUA MAKIKA*    NOT AVBL
$$

HIZ014>015-300700-
LANAI-

CITY           SKY/WX    TMP DP  RH WIND       PRES   REMARKS
LANAI CITY     FAIR      69  65  86 NE12      30.14R
LANAI 1*       NOT AVBL
$$

HIZ017>028-300700-
MAUI-

CITY           SKY/WX    TMP DP  RH WIND       PRES   REMARKS
KAHULUI        CLEAR     75  64  68 VRB5      30.07R
KAPALUA-W MAUI NOT AVBL
HANA AIRPORT   CLOUDY    75  66  73 E3        30.14R
HANA*            N/A     75 N/A N/A SE6G12      N/A
HALEAKALA SUMM   N/A     41  16  36 E18G37      N/A
MAALAEA BAY*   NOT AVBL
HALEAKALA*     NOT AVBL
KAUPO GAP*     NOT AVBL
KULA 1*          N/A     48  48 100 N3          N/A
$$

HIZ023>026-300700-
BIG ISLAND OF HAWAII COAST AND LOWER SLOPES-

CITY           SKY/WX    TMP DP  RH WIND       PRES   REMARKS
KAILUA KONA    CLEAR     78  65  63 SE12G20   30.05R
HILO           CLOUDY    73  66  78 SE12      30.11R
HONOKAA*         N/A     68 N/A N/A VRB1        N/A
KAWAIHAE MWT*    N/A     79 N/A N/A SW5         N/A
KAWAIHAE*      NOT AVBL
SOUTH POINT*     N/A     72 N/A N/A N14G20      N/A
UPOLU AIRPORT* NOT AVBL
KAMUELA*       CLOUDY    64  63  94 CALM      30.18R
HAKALAU*         N/A     48  45  87 SW7G13      N/A
KALOKO-HONOKO* NOT AVBL
PALI 2*          N/A     66  59  77 S8G15       N/A
KEALAKOMO*       N/A     75  66  73 NE16        N/A
KAUPULEHU*     NOT AVBL
KAPAPALA*        N/A     65  64  96 NW3         N/A
LOWER KAHUKU*  NOT AVBL
PUHE CS*       NOT AVBL
PUHO CS*       NOT AVBL
PTA KEAMUKU*     N/A     63  59  88 CALM        N/A
WAIKOLOA*      NOT AVBL
$$

HIZ027>028-300700-
BIG ISLAND OF HAWAII INTERIOR AND SUMMMITS-

CITY           SKY/WX    TMP DP  RH WIND       PRES   REMARKS
BRADSHAW FIELD MOCLDY    52  52 100 CALM      30.38R FOG
MK VISITOR CEN   N/A     50 -22   4 E5          N/A
MAUNA KEA*       N/A     36 -22   7 NE16        N/A  WCI  26
MAUNA LOA*       N/A    N/A N/A N/A MISG        N/A
MAUNA LOA 1*   NOT AVBL
PTA KIPUKA*      N/A     54  52  94 SE3         N/A
PTA RANGE 17*    N/A     64  55  72 NE8G17      N/A
PTA WEST*        N/A     61  57  88 E2          N/A
NENE CABIN*    NOT AVBL
AHUMOA*        NOT AVBL
PTA PORTABLE*  NOT AVBL
PUU MALI*        N/A     50  46  87 S7          N/A
$$

HIC003-300700-
NORTHWEST ISLANDS-

CITY           SKY/WX    TMP DP  RH WIND       PRES   REMARKS
MIDWAY ISLAND  CLOUDY    64  54  68 NW6       30.09R
MIDWAY NOS*    NOT AVBL
FRENCH FRIGATE NOT AVBL
$$

PHZ110>124-180-300700-
BUOY REPORTS

STATION/POSITION TIME  TEMP    WIND        PRES    WAVE   SWELL
                       AIR SEA DIR/SP/G            HT/PER HT/DIR
                 (UTC) (F)     (DEG/KT/KT) (MB)    (FT/S) (FT/D)
BUOY 51001       0550   75 77  120/  8/ 12 1019.0R   7/13   7/320
BUOY 51101       0550   75 76  120/  8/ 12 1019.6R   7/14   7/320
BUOY 51100       NOT AVBL
BUOY 51002       0550   78 78   70/ 16/ 19 1016.5R   9/10   7/ 90
BUOY 51003       0550   77 78   80/ 10/ 14 1017.8R   8/13   8/320
BUOY 51004       0450      77   80/ 17/ 21 1016.8   10/ 9   8/ 90
BARBERS PT BUOY  NOT AVBL
WAIMEA BAY BUOY  0502      76                N/A     7/14   5/320
KAILUA BAY BUOY  0534      76                N/A     7/10   2/130
LANAI BUOY       0545      79                N/A     3/13   2/250
BARBERS PT 2     NOT AVBL
PAUWELA MAUI     0539      76                N/A     7/14   3/320
HILO             0542      78                N/A     8/10   3/340
KANEOHE BAY BUOY 0555      75                N/A     5/13   2/340
HANALEI KAUAI    0552      77                N/A     8/14   7/320
KAHULUI HARBOR   0548   76 78  290/ 10/ 11 1018.1R
HONOLULU HARBOR  0548   77 78   40/  3/  5 1019.7R
KILO NALU        NOT AVBL
HILO HARBOR      0548   75 76  130/  6/ 13 1019.3R
MOKUOLOE         0536   76 79   90/  5/  8 1019.4R
NAWILIWILI       0548   75      70/  6/  7 1019.3R
WHOTS BUOY       NOT AVBL
BUOY 51028       NOT AVBL
$$

......................KEY........................................
  SKY/WX - SKY CONDITIONS/PRESENT WEATHER
  TMP    - TEMPERATURE IN FAHRENHEIT
  DWPT   - DEWPOINT IN FAHRENHEIT
  RH     - RELATIVE HUMIDITY IN PERCENT
  WIND   - DIRECTION AND SPEED /MPH FOR ISLANDS...KTS FOR BUOYS/
  PRES   - MEAN SEA LEVEL PRESSURE IN INCHES OF HG
  VSB    - VISIBILITY IN MILES
  HX     - HEAT INDEX
  WCI    - WIND CHILL INDEX
  VRB    - VARIABLE WIND DIRECTION
  N/A    - NOT AVAILABLE




USA.gov is the U.S. government's official web portal to all federal, state and local government web resources and services.